Time,TemperatureF,DewpointF,PressureIn,WindDirection,WindDirectionDegrees,WindSpeedMPH,WindSpeedGustMPH,Humidity,HourlyPrecipIn,Conditions,Clouds,dailyrainin,SoftwareType,DateUTC
2013-07-07 00:01:00,67.4,67.4,30.18,SSW,205,0.0,9.0,100,0.00,,,0.41,Wunderground v.1.15,2013-07-07 04:01:00,
2013-07-07 00:02:00,67.4,67.4,30.18,South,190,0.0,9.0,100,0.00,,,0.00,Wunderground v.1.15,2013-07-07 04:02:00,
2013-07-07 00:08:00,67.3,67.3,30.18,SW,223,1.0,9.0,100,0.07,,,0.01,Wunderground v.1.15,2013-07-07 04:08:00,
2013-07-07 00:10:00,67.2,67.2,30.18,SW,223,1.0,1.0,100,0.07,,,0.01,Wunderground v.1.15,2013-07-07 04:10:00,
2013-07-07 00:12:00,67.2,67.2,30.18,SSW,210,1.0,9.0,100,0.07,,,0.01,Wunderground v.1.15,2013-07-07 04:12:00,
2013-07-07 00:16:00,67.2,67.2,30.18,SSW,210,0.0,9.0,100,0.06,,,0.01,Wunderground v.1.15,2013-07-07 04:16:00,
2013-07-07 00:18:00,67.2,67.2,30.18,SSW,209,0.0,9.0,100,0.05,,,0.01,Wunderground v.1.15,2013-07-07 04:18:00,
2013-07-07 00:20:00,67.1,67.1,30.18,SSW,209,0.0,9.0,100,0.04,,,0.01,Wunderground v.1.15,2013-07-07 04:20:00,
2013-07-07 00:22:00,67.1,67.1,30.18,SSW,204,0.0,9.0,100,0.04,,,0.01,Wunderground v.1.15,2013-07-07 04:22:00,
2013-07-07 00:24:00,67.1,67.1,30.18,SSW,205,0.0,9.0,100,0.00,,,0.01,Wunderground v.1.15,2013-07-07 04:24:00,
2013-07-07 00:26:00,67.1,67.1,30.18,SW,219,1.0,9.0,100,0.00,,,0.01,Wunderground v.1.15,2013-07-07 04:26:00,
2013-07-07 00:28:00,67.1,67.1,30.18,SW,227,1.0,9.0,100,0.00,,,0.01,Wunderground v.1.15,2013-07-07 04:28:00,
2013-07-07 00:32:00,67.1,67.1,30.18,SW,222,1.0,9.0,100,0.00,,,0.01,Wunderground v.1.15,2013-07-07 04:32:00,
2013-07-07 00:34:00,67.1,67.1,30.18,SSW,194,1.0,9.0,100,0.00,,,0.01,Wunderground v.1.15,2013-07-07 04:34:00,
2013-07-07 00:36:00,67.1,67.1,30.18,SSW,194,1.0,9.0,100,0.00,,,0.01,Wunderground v.1.15,2013-07-07 04:36:00,
2013-07-07 00:38:00,67.0,67.0,30.18,SW,225,1.0,9.0,100,0.00,,,0.01,Wunderground v.1.15,2013-07-07 04:38:00,
2013-07-07 00:44:00,67.0,67.0,30.17,SW,225,0.0,9.0,100,0.00,,,0.01,Wunderground v.1.15,2013-07-07 04:44:00,
2013-07-07 00:46:00,67.0,67.0,30.17,SW,225,0.0,9.0,100,0.00,,,0.01,Wunderground v.1.15,2013-07-07 04:46:00,
2013-07-07 00:48:00,67.0,67.0,30.18,SW,225,0.0,9.0,100,0.00,,,0.01,Wunderground v.1.15,2013-07-07 04:48:00,
2013-07-07 00:50:00,67.0,67.0,30.17,SW,225,0.0,9.0,100,0.00,,,0.01,Wunderground v.1.15,2013-07-07 04:50:00,
2013-07-07 00:52:00,67.0,67.0,30.17,SW,225,0.0,9.0,100,0.00,,,0.01,Wunderground v.1.15,2013-07-07 04:52:00,
2013-07-07 00:54:00,67.0,67.0,30.17,SW,225,0.0,9.0,100,0.00,,,0.01,Wunderground v.1.15,2013-07-07 04:54:00,
2013-07-07 00:58:00,67.0,67.0,30.17,SW,221,0.0,9.0,100,0.00,,,0.02,Wunderground v.1.15,2013-07-07 04:58:00,
2013-07-07 01:00:00,67.0,67.0,30.17,SW,219,0.0,9.0,100,0.00,,,0.02,Wunderground v.1.15,2013-07-07 05:00:00,
2013-07-07 01:04:00,67.0,67.0,30.16,SW,216,0.0,9.0,100,0.00,,,0.02,Wunderground v.1.15,2013-07-07 05:04:00,
2013-07-07 01:06:00,67.0,67.0,30.16,SW,216,0.0,9.0,100,0.00,,,0.02,Wunderground v.1.15,2013-07-07 05:06:00,
2013-07-07 01:08:00,67.0,67.0,30.17,SW,216,0.0,9.0,100,0.00,,,0.02,Wunderground v.1.15,2013-07-07 05:08:00,
2013-07-07 01:10:00,67.0,67.0,30.17,SW,216,0.0,9.0,100,0.00,,,0.02,Wunderground v.1.15,2013-07-07 05:10:00,
2013-07-07 01:12:00,67.0,67.0,30.17,SW,216,0.0,9.0,100,0.00,,,0.02,Wunderground v.1.15,2013-07-07 05:12:00,
2013-07-07 01:16:00,67.0,67.0,30.17,SSW,209,0.0,9.0,100,0.00,,,0.02,Wunderground v.1.15,2013-07-07 05:16:00,
2013-07-07 01:18:00,67.0,67.0,30.16,SSW,212,0.0,9.0,100,0.00,,,0.02,Wunderground v.1.15,2013-07-07 05:18:00,
2013-07-07 01:20:00,67.0,67.0,30.16,SSW,212,0.0,9.0,100,0.00,,,0.02,Wunderground v.1.15,2013-07-07 05:20:00,
2013-07-07 01:24:00,67.0,67.0,30.16,SSW,192,0.0,9.0,100,0.00,,,0.02,Wunderground v.1.15,2013-07-07 05:24:00,
2013-07-07 01:26:00,67.0,67.0,30.16,SSW,197,0.0,9.0,100,0.00,,,0.02,Wunderground v.1.15,2013-07-07 05:26:00,
2013-07-07 01:28:00,67.0,67.0,30.16,SW,227,0.0,9.0,100,0.00,,,0.02,Wunderground v.1.15,2013-07-07 05:28:00,
2013-07-07 01:30:00,67.0,67.0,30.16,SW,227,0.0,9.0,100,0.00,,,0.02,Wunderground v.1.15,2013-07-07 05:30:00,
2013-07-07 01:36:00,66.9,66.9,30.16,SW,227,0.0,9.0,100,0.00,,,0.03,Wunderground v.1.15,2013-07-07 05:36:00,
2013-07-07 01:38:00,66.9,66.9,30.16,SW,227,0.0,9.0,100,0.00,,,0.03,Wunderground v.1.15,2013-07-07 05:38:00,
2013-07-07 01:40:00,66.9,66.9,30.16,SW,227,0.0,9.0,100,0.00,,,0.03,Wunderground v.1.15,2013-07-07 05:40:00,
2013-07-07 01:44:00,66.8,66.8,30.16,SW,221,0.0,9.0,100,0.00,,,0.03,Wunderground v.1.15,2013-07-07 05:44:00,
2013-07-07 01:46:00,66.8,66.8,30.16,SSW,204,0.0,9.0,100,0.00,,,0.03,Wunderground v.1.15,2013-07-07 05:46:00,
2013-07-07 01:48:00,66.8,66.8,30.16,SSW,204,0.0,9.0,100,0.00,,,0.03,Wunderground v.1.15,2013-07-07 05:48:00,
2013-07-07 01:50:00,66.8,66.8,30.16,SSW,207,0.0,9.0,100,0.00,,,0.03,Wunderground v.1.15,2013-07-07 05:50:00,
2013-07-07 01:52:00,66.8,66.8,30.16,SSE,161,0.0,9.0,100,0.00,,,0.03,Wunderground v.1.15,2013-07-07 05:52:00,
2013-07-07 01:56:00,66.8,66.8,30.15,SSE,165,0.0,9.0,100,0.00,,,0.03,Wunderground v.1.15,2013-07-07 05:56:00,
2013-07-07 01:58:00,66.8,66.8,30.15,South,174,0.0,9.0,100,0.00,,,0.03,Wunderground v.1.15,2013-07-07 05:58:00,
2013-07-07 02:02:00,66.7,66.7,30.15,South,174,0.0,9.0,100,0.00,,,0.03,Wunderground v.1.15,2013-07-07 06:02:00,
2013-07-07 02:06:00,66.7,66.7,30.15,SSW,193,0.0,9.0,100,0.00,,,0.03,Wunderground v.1.15,2013-07-07 06:06:00,
2013-07-07 02:08:00,66.6,66.6,30.15,SW,229,0.0,9.0,100,0.00,,,0.03,Wunderground v.1.15,2013-07-07 06:08:00,
2013-07-07 02:10:00,66.6,66.6,30.15,SW,229,0.0,9.0,100,0.00,,,0.03,Wunderground v.1.15,2013-07-07 06:10:00,
2013-07-07 02:14:00,66.6,66.6,30.15,SW,229,0.0,9.0,100,0.00,,,0.03,Wunderground v.1.15,2013-07-07 06:14:00,
2013-07-07 02:16:00,66.6,66.6,30.15,SW,219,0.0,9.0,100,0.00,,,0.03,Wunderground v.1.15,2013-07-07 06:16:00,
2013-07-07 02:18:00,66.5,66.5,30.15,SW,220,0.0,9.0,100,0.00,,,0.03,Wunderground v.1.15,2013-07-07 06:18:00,
2013-07-07 02:22:00,66.5,66.5,30.15,SW,218,0.0,9.0,100,0.00,,,0.03,Wunderground v.1.15,2013-07-07 06:22:00,
2013-07-07 02:24:00,66.5,66.5,30.15,SW,217,0.0,9.0,100,0.00,,,0.03,Wunderground v.1.15,2013-07-07 06:24:00,
2013-07-07 02:26:00,66.5,66.5,30.15,SW,217,0.0,9.0,100,0.00,,,0.03,Wunderground v.1.15,2013-07-07 06:26:00,
2013-07-07 02:28:00,66.5,66.5,30.15,SW,216,0.0,9.0,100,0.00,,,0.03,Wunderground v.1.15,2013-07-07 06:28:00,
2013-07-07 02:30:00,66.4,66.4,30.15,SW,218,0.0,9.0,100,0.00,,,0.03,Wunderground v.1.15,2013-07-07 06:30:00,
2013-07-07 02:32:00,66.4,66.4,30.15,SW,228,0.0,9.0,100,0.00,,,0.03,Wunderground v.1.15,2013-07-07 06:32:00,
2013-07-07 02:38:00,66.3,66.3,30.15,SW,222,0.0,9.0,100,0.00,,,0.03,Wunderground v.1.15,2013-07-07 06:38:00,
2013-07-07 02:40:00,66.3,66.3,30.15,SW,236,1.0,1.0,100,0.00,,,0.03,Wunderground v.1.15,2013-07-07 06:40:00,
2013-07-07 02:44:00,66.4,66.4,30.15,SW,232,1.0,9.0,100,0.00,,,0.03,Wunderground v.1.15,2013-07-07 06:44:00,
2013-07-07 02:46:00,66.4,66.4,30.15,SW,215,1.0,9.0,100,0.00,,,0.03,Wunderground v.1.15,2013-07-07 06:46:00,
2013-07-07 02:50:00,66.4,66.4,30.15,SSW,196,1.0,9.0,100,0.00,,,0.03,Wunderground v.1.15,2013-07-07 06:50:00,
2013-07-07 02:52:00,66.4,66.4,30.15,SSW,205,1.0,9.0,100,0.00,,,0.03,Wunderground v.1.15,2013-07-07 06:52:00,
2013-07-07 02:54:00,66.4,66.4,30.15,SSW,202,1.0,9.0,100,0.00,,,0.03,Wunderground v.1.15,2013-07-07 06:54:00,
2013-07-07 02:56:00,66.4,66.4,30.15,SSW,207,1.0,9.0,100,0.00,,,0.03,Wunderground v.1.15,2013-07-07 06:56:00,
2013-07-07 02:58:00,66.4,66.4,30.15,SSW,210,1.0,9.0,100,0.00,,,0.03,Wunderground v.1.15,2013-07-07 06:58:00,
2013-07-07 03:00:00,66.4,66.4,30.15,SW,215,1.0,1.0,100,0.00,,,0.03,Wunderground v.1.15,2013-07-07 07:00:00,
2013-07-07 03:02:00,66.4,66.4,30.15,WSW,238,1.0,9.0,100,0.00,,,0.04,Wunderground v.1.15,2013-07-07 07:02:00,
2013-07-07 03:04:00,66.4,66.4,30.15,SSW,195,1.0,9.0,100,0.00,,,0.04,Wunderground v.1.15,2013-07-07 07:04:00,
2013-07-07 03:08:00,66.3,66.3,30.14,WSW,239,1.0,9.0,100,0.13,,,0.05,Wunderground v.1.15,2013-07-07 07:08:00,
2013-07-07 03:10:00,66.3,66.3,30.14,SSW,203,1.0,1.0,100,0.12,,,0.05,Wunderground v.1.15,2013-07-07 07:10:00,
2013-07-07 03:14:00,66.3,66.3,30.14,SW,219,1.0,9.0,100,0.07,,,0.05,Wunderground v.1.15,2013-07-07 07:14:00,
2013-07-07 03:16:00,66.3,66.3,30.14,SSW,203,1.0,9.0,100,0.07,,,0.06,Wunderground v.1.15,2013-07-07 07:16:00,
2013-07-07 03:20:00,66.2,66.2,30.14,SW,235,1.0,1.0,100,0.13,,,0.07,Wunderground v.1.15,2013-07-07 07:20:00,
2013-07-07 03:22:00,66.2,66.2,30.14,SW,225,1.0,9.0,100,0.13,,,0.07,Wunderground v.1.15,2013-07-07 07:22:00,
2013-07-07 03:28:00,66.1,66.1,30.13,WSW,244,2.0,9.0,100,0.11,,,0.08,Wunderground v.1.15,2013-07-07 07:28:00,
2013-07-07 03:30:00,66.1,66.1,30.13,SW,219,2.0,2.0,100,0.10,,,0.08,Wunderground v.1.15,2013-07-07 07:30:00,
2013-07-07 03:32:00,66.1,66.1,30.13,SW,219,1.0,9.0,100,0.07,,,0.08,Wunderground v.1.15,2013-07-07 07:32:00,
2013-07-07 03:38:00,66.1,66.1,30.13,SW,236,1.0,9.0,100,0.04,,,0.08,Wunderground v.1.15,2013-07-07 07:38:00,
2013-07-07 03:40:00,66.1,66.1,30.13,SSW,209,1.0,9.0,100,0.04,,,0.08,Wunderground v.1.15,2013-07-07 07:40:00,
2013-07-07 03:44:00,66.1,66.1,30.13,SW,228,1.0,9.0,100,0.00,,,0.08,Wunderground v.1.15,2013-07-07 07:44:00,
2013-07-07 03:46:00,66.1,66.1,30.14,SW,219,1.0,9.0,100,0.00,,,0.09,Wunderground v.1.15,2013-07-07 07:46:00,
2013-07-07 03:50:00,66.1,66.1,30.13,SW,219,0.0,9.0,100,0.17,,,0.10,Wunderground v.1.15,2013-07-07 07:50:00,
2013-07-07 03:52:00,66.1,66.1,30.13,SE,135,0.0,9.0,100,0.17,,,0.10,Wunderground v.1.15,2013-07-07 07:52:00,
2013-07-07 03:54:00,66.1,66.1,30.13,WSW,254,0.0,9.0,100,0.14,,,0.10,Wunderground v.1.15,2013-07-07 07:54:00,
2013-07-07 03:56:00,66.1,66.1,30.14,SW,235,0.0,9.0,100,0.14,,,0.11,Wunderground v.1.15,2013-07-07 07:56:00,
2013-07-07 04:02:00,66.1,66.1,30.13,SW,224,0.0,9.0,100,0.17,,,0.13,Wunderground v.1.15,2013-07-07 08:02:00,
2013-07-07 04:04:00,66.1,66.1,30.13,South,184,0.0,9.0,100,0.17,,,0.13,Wunderground v.1.15,2013-07-07 08:04:00,
2013-07-07 04:06:00,66.1,66.1,30.14,South,182,0.0,9.0,100,0.13,,,0.13,Wunderground v.1.15,2013-07-07 08:06:00,
2013-07-07 04:08:00,66.1,66.1,30.14,SW,219,0.0,9.0,100,0.10,,,0.14,Wunderground v.1.15,2013-07-07 08:08:00,
2013-07-07 04:12:00,66.1,66.1,30.14,SSW,211,0.0,9.0,100,0.10,,,0.14,Wunderground v.1.15,2013-07-07 08:12:00,
2013-07-07 04:14:00,66.1,66.1,30.14,South,186,0.0,9.0,100,0.09,,,0.14,Wunderground v.1.15,2013-07-07 08:14:00,
2013-07-07 04:16:00,66.1,66.1,30.14,South,186,0.0,9.0,100,0.07,,,0.14,Wunderground v.1.15,2013-07-07 08:16:00,
2013-07-07 04:22:00,66.1,66.1,30.14,SW,215,1.0,9.0,100,0.05,,,0.15,Wunderground v.1.15,2013-07-07 08:22:00,
2013-07-07 04:24:00,66.1,66.1,30.14,SSW,212,1.0,9.0,100,0.05,,,0.15,Wunderground v.1.15,2013-07-07 08:24:00,
2013-07-07 04:28:00,66.1,66.1,30.14,SE,142,1.0,9.0,100,0.05,,,0.15,Wunderground v.1.15,2013-07-07 08:28:00,
2013-07-07 04:32:00,66.1,66.1,30.14,SE,142,0.0,9.0,100,0.05,,,0.15,Wunderground v.1.15,2013-07-07 08:32:00,
2013-07-07 04:34:00,66.2,66.2,30.14,SW,217,0.0,9.0,100,0.04,,,0.15,Wunderground v.1.15,2013-07-07 08:34:00,
2013-07-07 04:38:00,66.2,66.2,30.13,SSW,213,0.0,9.0,100,0.04,,,0.16,Wunderground v.1.15,2013-07-07 08:38:00,
2013-07-07 04:40:00,66.2,66.2,30.13,SSW,213,0.0,9.0,100,0.04,,,0.16,Wunderground v.1.15,2013-07-07 08:40:00,
2013-07-07 04:46:00,66.2,66.2,30.13,SSW,213,0.0,9.0,100,0.04,,,0.16,Wunderground v.1.15,2013-07-07 08:46:00,
2013-07-07 04:48:00,66.2,66.2,30.13,SSW,213,0.0,9.0,100,0.04,,,0.16,Wunderground v.1.15,2013-07-07 08:48:00,
2013-07-07 04:52:00,66.2,66.2,30.13,SSW,213,0.0,9.0,100,0.04,,,0.16,Wunderground v.1.15,2013-07-07 08:52:00,
2013-07-07 04:54:00,66.2,66.2,30.13,SSW,213,0.0,9.0,100,0.00,,,0.16,Wunderground v.1.15,2013-07-07 08:54:00,
2013-07-07 04:56:00,66.2,66.2,30.13,SSW,213,0.0,9.0,100,0.00,,,0.16,Wunderground v.1.15,2013-07-07 08:56:00,
2013-07-07 05:01:00,66.1,66.1,30.13,SSW,213,0.0,9.0,100,0.00,,,0.16,Wunderground v.1.15,2013-07-07 09:01:00,
2013-07-07 05:02:00,66.2,66.2,30.13,SSW,213,0.0,9.0,100,0.00,,,0.16,Wunderground v.1.15,2013-07-07 09:02:00,
2013-07-07 05:06:00,66.1,66.1,30.13,SSW,213,0.0,9.0,100,0.00,,,0.16,Wunderground v.1.15,2013-07-07 09:06:00,
2013-07-07 05:10:00,66.1,66.1,30.13,SSW,213,0.0,9.0,100,0.00,,,0.16,Wunderground v.1.15,2013-07-07 09:10:00,
2013-07-07 05:12:00,66.1,66.1,30.13,SSW,213,0.0,9.0,100,0.00,,,0.16,Wunderground v.1.15,2013-07-07 09:12:00,
2013-07-07 05:14:00,66.1,66.1,30.13,SSW,213,0.0,9.0,100,0.00,,,0.16,Wunderground v.1.15,2013-07-07 09:14:00,
2013-07-07 05:18:00,66.1,66.1,30.13,SSW,213,0.0,9.0,100,0.00,,,0.16,Wunderground v.1.15,2013-07-07 09:18:00,
2013-07-07 05:20:00,66.1,66.1,30.13,SSW,213,0.0,9.0,100,0.00,,,0.16,Wunderground v.1.15,2013-07-07 09:20:00,
2013-07-07 05:24:00,66.1,66.1,30.13,SSW,213,0.0,9.0,100,0.00,,,0.16,Wunderground v.1.15,2013-07-07 09:24:00,
2013-07-07 05:28:00,66.2,66.2,30.14,SSW,213,0.0,9.0,100,0.00,,,0.16,Wunderground v.1.15,2013-07-07 09:28:00,
2013-07-07 05:30:00,66.1,66.1,30.14,SSW,213,0.0,9.0,100,0.00,,,0.16,Wunderground v.1.15,2013-07-07 09:30:00,
2013-07-07 05:34:00,66.2,66.2,30.14,SSW,213,0.0,9.0,100,0.00,,,0.16,Wunderground v.1.15,2013-07-07 09:34:00,
2013-07-07 05:36:00,66.1,66.1,30.14,SSW,213,0.0,9.0,100,0.00,,,0.16,Wunderground v.1.15,2013-07-07 09:36:00,
2013-07-07 05:38:00,66.1,66.1,30.14,SSW,213,0.0,9.0,100,0.00,,,0.16,Wunderground v.1.15,2013-07-07 09:38:00,
2013-07-07 05:40:00,66.2,66.2,30.14,SSW,213,0.0,9.0,100,0.00,,,0.16,Wunderground v.1.15,2013-07-07 09:40:00,
2013-07-07 05:44:00,66.2,66.2,30.14,SSW,213,0.0,9.0,100,0.00,,,0.16,Wunderground v.1.15,2013-07-07 09:44:00,
2013-07-07 05:46:00,66.2,66.2,30.14,SSW,213,0.0,9.0,100,0.00,,,0.16,Wunderground v.1.15,2013-07-07 09:46:00,
2013-07-07 05:50:00,66.2,66.2,30.14,SSW,213,0.0,9.0,100,0.00,,,0.16,Wunderground v.1.15,2013-07-07 09:50:00,
2013-07-07 05:54:00,66.2,66.2,30.14,SSW,213,0.0,9.0,100,0.00,,,0.16,Wunderground v.1.15,2013-07-07 09:54:00,
2013-07-07 05:58:00,66.2,66.2,30.14,SSW,213,0.0,9.0,100,0.00,,,0.16,Wunderground v.1.15,2013-07-07 09:58:00,
2013-07-07 06:01:00,66.2,66.2,30.14,SSW,213,0.0,9.0,100,0.00,,,0.16,Wunderground v.1.15,2013-07-07 10:01:00,
2013-07-07 06:02:00,66.2,66.2,30.14,SSW,213,0.0,9.0,100,0.00,,,0.16,Wunderground v.1.15,2013-07-07 10:02:00,
2013-07-07 06:06:00,66.2,66.2,30.14,SSW,213,0.0,9.0,100,0.00,,,0.16,Wunderground v.1.15,2013-07-07 10:06:00,
2013-07-07 06:10:00,66.3,66.3,30.14,SSW,213,0.0,9.0,100,0.00,,,0.16,Wunderground v.1.15,2013-07-07 10:10:00,
2013-07-07 06:12:00,66.3,66.3,30.14,SSW,213,0.0,9.0,100,0.00,,,0.16,Wunderground v.1.15,2013-07-07 10:12:00,
2013-07-07 06:14:00,66.3,66.3,30.14,SSW,213,0.0,9.0,100,0.00,,,0.16,Wunderground v.1.15,2013-07-07 10:14:00,
2013-07-07 06:16:00,66.3,66.3,30.14,SSW,213,0.0,9.0,100,0.00,,,0.16,Wunderground v.1.15,2013-07-07 10:16:00,
2013-07-07 06:18:00,66.3,66.3,30.14,SSW,213,0.0,9.0,100,0.00,,,0.16,Wunderground v.1.15,2013-07-07 10:18:00,
2013-07-07 06:22:00,66.3,66.3,30.14,SSW,213,0.0,9.0,100,0.00,,,0.16,Wunderground v.1.15,2013-07-07 10:22:00,
2013-07-07 06:24:00,66.3,66.3,30.14,SSW,213,0.0,9.0,100,0.00,,,0.16,Wunderground v.1.15,2013-07-07 10:24:00,
2013-07-07 06:30:00,66.3,66.3,30.14,SSW,213,0.0,9.0,100,0.00,,,0.16,Wunderground v.1.15,2013-07-07 10:30:00,
2013-07-07 06:32:00,66.3,66.3,30.14,SSW,213,0.0,9.0,100,0.00,,,0.16,Wunderground v.1.15,2013-07-07 10:32:00,
2013-07-07 06:34:00,66.3,66.3,30.15,SSW,213,0.0,9.0,100,0.00,,,0.16,Wunderground v.1.15,2013-07-07 10:34:00,
2013-07-07 06:38:00,66.4,66.4,30.14,SSW,213,0.0,9.0,100,0.00,,,0.16,Wunderground v.1.15,2013-07-07 10:38:00,
2013-07-07 06:40:00,66.4,66.4,30.15,SSW,213,0.0,9.0,100,0.00,,,0.16,Wunderground v.1.15,2013-07-07 10:40:00,
2013-07-07 06:42:00,66.4,66.4,30.15,SSW,213,0.0,9.0,100,0.00,,,0.16,Wunderground v.1.15,2013-07-07 10:42:00,
2013-07-07 06:44:00,66.4,66.4,30.15,SSW,213,0.0,9.0,100,0.00,,,0.16,Wunderground v.1.15,2013-07-07 10:44:00,
2013-07-07 06:46:00,66.4,66.4,30.14,SSW,213,0.0,9.0,100,0.00,,,0.16,Wunderground v.1.15,2013-07-07 10:46:00,
2013-07-07 06:48:00,66.4,66.4,30.15,SSW,213,0.0,9.0,100,0.00,,,0.16,Wunderground v.1.15,2013-07-07 10:48:00,
2013-07-07 06:52:00,66.5,66.5,30.15,SSW,213,0.0,9.0,100,0.00,,,0.16,Wunderground v.1.15,2013-07-07 10:52:00,
2013-07-07 06:54:00,66.5,66.5,30.15,SSW,213,0.0,9.0,100,0.00,,,0.16,Wunderground v.1.15,2013-07-07 10:54:00,
2013-07-07 06:56:00,66.5,66.5,30.15,SSW,213,0.0,9.0,100,0.00,,,0.16,Wunderground v.1.15,2013-07-07 10:56:00,
2013-07-07 06:58:00,66.5,66.5,30.15,SSW,213,0.0,9.0,100,0.00,,,0.16,Wunderground v.1.15,2013-07-07 10:58:00,
2013-07-07 07:02:00,66.6,66.6,30.15,SSW,213,0.0,9.0,100,0.00,,,0.16,Wunderground v.1.15,2013-07-07 11:02:00,
2013-07-07 07:08:00,66.6,66.6,30.15,SSW,213,0.0,9.0,100,0.00,,,0.16,Wunderground v.1.15,2013-07-07 11:08:00,
2013-07-07 07:12:00,66.7,66.7,30.16,SSW,213,0.0,9.0,100,0.00,,,0.16,Wunderground v.1.15,2013-07-07 11:12:00,
2013-07-07 07:14:00,66.7,66.7,30.16,SSW,213,0.0,9.0,100,0.00,,,0.16,Wunderground v.1.15,2013-07-07 11:14:00,
2013-07-07 07:20:00,66.8,66.8,30.16,SSW,213,0.0,9.0,100,0.00,,,0.16,Wunderground v.1.15,2013-07-07 11:20:00,
2013-07-07 07:22:00,66.8,66.8,30.16,SSW,213,0.0,9.0,100,0.00,,,0.16,Wunderground v.1.15,2013-07-07 11:22:00,
2013-07-07 07:28:00,66.7,66.7,30.16,SSW,213,0.0,9.0,100,0.00,,,0.16,Wunderground v.1.15,2013-07-07 11:28:00,
2013-07-07 07:30:00,66.7,66.7,30.16,SSW,213,0.0,9.0,100,0.00,,,0.16,Wunderground v.1.15,2013-07-07 11:30:00,
2013-07-07 07:32:00,66.8,66.8,30.16,SSW,213,0.0,9.0,100,0.00,,,0.16,Wunderground v.1.15,2013-07-07 11:32:00,
2013-07-07 07:36:00,66.8,66.8,30.16,SSW,213,0.0,9.0,100,0.00,,,0.16,Wunderground v.1.15,2013-07-07 11:36:00,
2013-07-07 07:40:00,66.9,66.9,30.16,SSW,213,0.0,9.0,100,0.00,,,0.16,Wunderground v.1.15,2013-07-07 11:40:00,
2013-07-07 07:42:00,67.0,67.0,30.17,SSW,213,0.0,9.0,100,0.00,,,0.16,Wunderground v.1.15,2013-07-07 11:42:00,
2013-07-07 07:44:00,67.0,67.0,30.17,SSW,213,0.0,9.0,100,0.00,,,0.16,Wunderground v.1.15,2013-07-07 11:44:00,
2013-07-07 07:46:00,67.0,67.0,30.17,SSW,213,0.0,9.0,100,0.00,,,0.16,Wunderground v.1.15,2013-07-07 11:46:00,
2013-07-07 07:50:00,67.0,67.0,30.17,SSW,213,0.0,9.0,100,0.00,,,0.16,Wunderground v.1.15,2013-07-07 11:50:00,
2013-07-07 07:52:00,67.1,67.1,30.17,SSW,213,0.0,9.0,100,0.00,,,0.17,Wunderground v.1.15,2013-07-07 11:52:00,
2013-07-07 07:56:00,67.1,67.1,30.17,SSW,213,0.0,9.0,100,0.19,,,0.18,Wunderground v.1.15,2013-07-07 11:56:00,
2013-07-07 07:58:00,67.0,67.0,30.17,SSW,213,0.0,9.0,100,0.11,,,0.18,Wunderground v.1.15,2013-07-07 11:58:00,
2013-07-07 08:00:00,67.1,67.1,30.17,SSW,213,0.0,9.0,100,0.08,,,0.18,Wunderground v.1.15,2013-07-07 12:00:00,
2013-07-07 08:02:00,67.1,67.1,30.17,SSW,213,0.0,9.0,100,0.06,,,0.18,Wunderground v.1.15,2013-07-07 12:02:00,
2013-07-07 08:04:00,67.1,67.1,30.17,SSW,213,0.0,9.0,100,0.05,,,0.18,Wunderground v.1.15,2013-07-07 12:04:00,
2013-07-07 08:08:00,67.1,67.1,30.17,SSW,213,0.0,9.0,100,0.04,,,0.18,Wunderground v.1.15,2013-07-07 12:08:00,
2013-07-07 08:10:00,67.1,67.1,30.17,SSW,213,0.0,9.0,100,0.04,,,0.18,Wunderground v.1.15,2013-07-07 12:10:00,
2013-07-07 08:12:00,67.1,67.1,30.17,SSW,213,0.0,9.0,100,0.04,,,0.19,Wunderground v.1.15,2013-07-07 12:12:00,
2013-07-07 08:14:00,67.1,67.1,30.17,SSW,213,0.0,9.0,100,0.04,,,0.19,Wunderground v.1.15,2013-07-07 12:14:00,
2013-07-07 08:16:00,67.1,67.1,30.17,SSW,213,0.0,9.0,100,0.04,,,0.19,Wunderground v.1.15,2013-07-07 12:16:00,
2013-07-07 08:22:00,67.1,67.1,30.18,SSW,213,0.0,9.0,100,0.04,,,0.19,Wunderground v.1.15,2013-07-07 12:22:00,
2013-07-07 08:26:00,67.2,67.2,30.18,SSW,213,0.0,9.0,100,0.04,,,0.19,Wunderground v.1.15,2013-07-07 12:26:00,
2013-07-07 08:32:00,67.3,67.3,30.18,SSW,213,0.0,9.0,100,0.00,,,0.19,Wunderground v.1.15,2013-07-07 12:32:00,
2013-07-07 08:34:00,67.3,67.3,30.18,SSW,213,0.0,9.0,100,0.00,,,0.19,Wunderground v.1.15,2013-07-07 12:34:00,
2013-07-07 08:36:00,67.3,67.3,30.18,SSW,213,0.0,9.0,100,0.00,,,0.19,Wunderground v.1.15,2013-07-07 12:36:00,
2013-07-07 08:38:00,67.3,67.3,30.18,SSW,213,0.0,9.0,100,0.00,,,0.19,Wunderground v.1.15,2013-07-07 12:38:00,
2013-07-07 08:40:00,67.4,67.4,30.18,SSW,213,0.0,9.0,100,0.00,,,0.19,Wunderground v.1.15,2013-07-07 12:40:00,
2013-07-07 08:42:00,67.4,67.4,30.18,SSW,213,0.0,9.0,100,0.00,,,0.19,Wunderground v.1.15,2013-07-07 12:42:00,
2013-07-07 08:44:00,67.3,67.3,30.18,SSW,213,0.0,9.0,100,0.00,,,0.19,Wunderground v.1.15,2013-07-07 12:44:00,
2013-07-07 08:48:00,67.4,67.4,30.18,SSW,213,0.0,9.0,100,0.00,,,0.19,Wunderground v.1.15,2013-07-07 12:48:00,
2013-07-07 08:50:00,67.4,67.4,30.18,SSW,213,0.0,9.0,100,0.00,,,0.19,Wunderground v.1.15,2013-07-07 12:50:00,
2013-07-07 08:52:00,67.4,67.4,30.18,SSW,213,0.0,9.0,100,0.00,,,0.19,Wunderground v.1.15,2013-07-07 12:52:00,
2013-07-07 08:56:00,67.5,67.5,30.18,SSW,213,0.0,9.0,100,0.00,,,0.19,Wunderground v.1.15,2013-07-07 12:56:00,
2013-07-07 08:58:00,67.5,67.5,30.18,SSW,213,0.0,9.0,100,0.00,,,0.19,Wunderground v.1.15,2013-07-07 12:58:00,
2013-07-07 09:04:00,67.6,67.6,30.18,SSW,213,0.0,9.0,100,0.00,,,0.19,Wunderground v.1.15,2013-07-07 13:04:00,
2013-07-07 09:08:00,68.0,68.0,30.18,SSW,213,0.0,9.0,100,0.00,,,0.19,Wunderground v.1.15,2013-07-07 13:08:00,
2013-07-07 09:10:00,68.1,68.1,30.18,SSW,213,0.0,9.0,100,0.00,,,0.19,Wunderground v.1.15,2013-07-07 13:10:00,
2013-07-07 09:12:00,68.3,68.3,30.18,SSW,213,0.0,9.0,100,0.00,,,0.19,Wunderground v.1.15,2013-07-07 13:12:00,
2013-07-07 09:14:00,68.3,68.3,30.18,SSW,213,0.0,9.0,100,0.00,,,0.19,Wunderground v.1.15,2013-07-07 13:14:00,
2013-07-07 09:20:00,68.3,68.3,30.19,WSW,241,0.0,9.0,100,0.00,,,0.19,Wunderground v.1.15,2013-07-07 13:20:00,
2013-07-07 09:22:00,68.2,68.2,30.19,WNW,290,0.0,9.0,100,0.00,,,0.19,Wunderground v.1.15,2013-07-07 13:22:00,
2013-07-07 09:24:00,68.1,68.1,30.19,WNW,290,0.0,9.0,100,0.00,,,0.19,Wunderground v.1.15,2013-07-07 13:24:00,
2013-07-07 09:26:00,68.1,68.1,30.18,WNW,290,0.0,9.0,100,0.00,,,0.19,Wunderground v.1.15,2013-07-07 13:26:00,
2013-07-07 09:32:00,68.5,68.5,30.19,WNW,290,0.0,9.0,100,0.00,,,0.19,Wunderground v.1.15,2013-07-07 13:32:00,
2013-07-07 09:34:00,68.5,68.5,30.19,WNW,290,0.0,9.0,100,0.00,,,0.19,Wunderground v.1.15,2013-07-07 13:34:00,
2013-07-07 09:36:00,68.5,68.5,30.19,WNW,290,0.0,9.0,100,0.00,,,0.19,Wunderground v.1.15,2013-07-07 13:36:00,
2013-07-07 09:38:00,68.7,68.7,30.19,WNW,290,0.0,9.0,100,0.00,,,0.19,Wunderground v.1.15,2013-07-07 13:38:00,
2013-07-07 09:40:00,68.8,68.8,30.19,WNW,290,0.0,9.0,100,0.00,,,0.19,Wunderground v.1.15,2013-07-07 13:40:00,
2013-07-07 09:42:00,69.0,69.0,30.18,NW,310,0.0,9.0,100,0.00,,,0.19,Wunderground v.1.15,2013-07-07 13:42:00,
2013-07-07 09:46:00,69.0,69.0,30.18,SW,224,0.0,9.0,100,0.00,,,0.19,Wunderground v.1.15,2013-07-07 13:46:00,
2013-07-07 09:48:00,68.9,68.9,30.18,West,281,0.0,9.0,100,0.00,,,0.19,Wunderground v.1.15,2013-07-07 13:48:00,
2013-07-07 09:50:00,68.9,68.9,30.19,West,281,0.0,9.0,100,0.00,,,0.19,Wunderground v.1.15,2013-07-07 13:50:00,
2013-07-07 09:54:00,68.8,68.8,30.19,WSW,242,0.0,9.0,100,0.00,,,0.19,Wunderground v.1.15,2013-07-07 13:54:00,
2013-07-07 09:56:00,68.8,68.8,30.18,West,279,0.0,9.0,100,0.00,,,0.19,Wunderground v.1.15,2013-07-07 13:56:00,
2013-07-07 10:01:00,68.8,68.8,30.19,West,275,0.0,9.0,100,0.00,,,0.19,Wunderground v.1.15,2013-07-07 14:01:00,
2013-07-07 10:04:00,68.8,68.8,30.18,SW,225,0.0,9.0,100,0.00,,,0.19,Wunderground v.1.15,2013-07-07 14:04:00,
2013-07-07 10:06:00,68.7,68.7,30.18,WNW,284,0.0,9.0,100,0.00,,,0.19,Wunderground v.1.15,2013-07-07 14:06:00,
2013-07-07 10:08:00,68.8,68.8,30.18,West,265,0.0,9.0,100,0.00,,,0.19,Wunderground v.1.15,2013-07-07 14:08:00,
2013-07-07 10:10:00,68.7,68.7,30.18,WSW,252,0.0,9.0,100,0.00,,,0.19,Wunderground v.1.15,2013-07-07 14:10:00,
2013-07-07 10:12:00,68.8,68.8,30.18,WNW,298,0.0,9.0,100,0.00,,,0.19,Wunderground v.1.15,2013-07-07 14:12:00,
2013-07-07 10:18:00,69.2,69.2,30.18,SSW,211,0.0,9.0,100,0.00,,,0.19,Wunderground v.1.15,2013-07-07 14:18:00,
2013-07-07 10:20:00,69.2,69.2,30.18,SW,215,0.0,9.0,100,0.00,,,0.19,Wunderground v.1.15,2013-07-07 14:20:00,
2013-07-07 10:22:00,69.3,69.3,30.18,West,264,0.0,9.0,100,0.00,,,0.19,Wunderground v.1.15,2013-07-07 14:22:00,
2013-07-07 10:24:00,69.2,69.2,30.18,West,279,0.0,9.0,100,0.00,,,0.19,Wunderground v.1.15,2013-07-07 14:24:00,
2013-07-07 10:26:00,69.2,69.2,30.18,West,261,0.0,9.0,100,0.00,,,0.19,Wunderground v.1.15,2013-07-07 14:26:00,
2013-07-07 10:28:00,69.2,69.2,30.18,West,259,0.0,9.0,100,0.00,,,0.19,Wunderground v.1.15,2013-07-07 14:28:00,
2013-07-07 10:32:00,69.3,69.3,30.18,WNW,289,0.0,9.0,100,0.00,,,0.19,Wunderground v.1.15,2013-07-07 14:32:00,
2013-07-07 10:34:00,69.2,69.2,30.18,WSW,252,0.0,9.0,100,0.00,,,0.19,Wunderground v.1.15,2013-07-07 14:34:00,
2013-07-07 10:36:00,69.2,69.2,30.18,SW,225,0.0,9.0,100,0.00,,,0.19,Wunderground v.1.15,2013-07-07 14:36:00,
2013-07-07 10:40:00,69.2,69.2,30.18,West,278,1.0,1.0,100,0.00,,,0.19,Wunderground v.1.15,2013-07-07 14:40:00,
2013-07-07 10:44:00,69.3,69.3,30.18,WSW,240,0.0,9.0,100,0.00,,,0.19,Wunderground v.1.15,2013-07-07 14:44:00,
2013-07-07 10:48:00,69.5,69.5,30.19,West,266,0.0,9.0,100,0.00,,,0.19,Wunderground v.1.15,2013-07-07 14:48:00,
2013-07-07 10:50:00,69.5,69.5,30.19,SW,236,0.0,9.0,100,0.00,,,0.19,Wunderground v.1.15,2013-07-07 14:50:00,
2013-07-07 10:52:00,69.7,69.7,30.19,SW,236,0.0,9.0,100,0.00,,,0.19,Wunderground v.1.15,2013-07-07 14:52:00,
2013-07-07 10:54:00,69.8,69.8,30.19,SW,236,0.0,9.0,100,0.00,,,0.19,Wunderground v.1.15,2013-07-07 14:54:00,
2013-07-07 10:58:00,70.1,70.1,30.19,SW,234,0.0,9.0,100,0.00,,,0.19,Wunderground v.1.15,2013-07-07 14:58:00,
2013-07-07 11:00:00,70.0,70.0,30.19,WSW,246,0.0,9.0,100,0.00,,,0.19,Wunderground v.1.15,2013-07-07 15:00:00,
2013-07-07 11:02:00,70.1,70.1,30.19,SW,234,0.0,9.0,100,0.00,,,0.19,Wunderground v.1.15,2013-07-07 15:02:00,
2013-07-07 11:06:00,70.2,69.9,30.18,SW,234,0.0,9.0,99,0.00,,,0.19,Wunderground v.1.15,2013-07-07 15:06:00,
2013-07-07 11:08:00,70.2,69.9,30.18,WNW,301,0.0,9.0,99,0.00,,,0.19,Wunderground v.1.15,2013-07-07 15:08:00,
2013-07-07 11:12:00,70.2,69.9,30.18,WNW,301,0.0,9.0,99,0.00,,,0.19,Wunderground v.1.15,2013-07-07 15:12:00,
2013-07-07 11:14:00,70.3,70.0,30.19,West,259,0.0,9.0,99,0.00,,,0.19,Wunderground v.1.15,2013-07-07 15:14:00,
2013-07-07 11:18:00,69.9,69.3,30.18,West,275,0.0,9.0,98,0.00,,,0.19,Wunderground v.1.15,2013-07-07 15:18:00,
2013-07-07 11:22:00,69.8,69.2,30.19,WNW,297,0.0,9.0,98,0.00,,,0.19,Wunderground v.1.15,2013-07-07 15:22:00,
2013-07-07 11:24:00,69.8,69.2,30.19,NNE,16,0.0,9.0,98,0.00,,,0.19,Wunderground v.1.15,2013-07-07 15:24:00,
2013-07-07 11:26:00,69.8,69.2,30.19,WNW,286,0.0,9.0,98,0.00,,,0.19,Wunderground v.1.15,2013-07-07 15:26:00,
2013-07-07 11:30:00,69.7,69.1,30.19,South,175,0.0,9.0,98,0.00,,,0.19,Wunderground v.1.15,2013-07-07 15:30:00,
2013-07-07 11:34:00,69.9,69.3,30.19,South,176,0.0,9.0,98,0.00,,,0.19,Wunderground v.1.15,2013-07-07 15:34:00,
2013-07-07 11:36:00,69.9,69.6,30.19,South,176,0.0,9.0,99,0.00,,,0.19,Wunderground v.1.15,2013-07-07 15:36:00,
2013-07-07 11:38:00,70.2,69.9,30.19,South,175,0.0,9.0,99,0.00,,,0.19,Wunderground v.1.15,2013-07-07 15:38:00,
2013-07-07 11:40:00,70.4,70.1,30.19,South,175,0.0,9.0,99,0.00,,,0.19,Wunderground v.1.15,2013-07-07 15:40:00,
2013-07-07 11:44:00,70.6,70.3,30.19,South,173,0.0,9.0,99,0.00,,,0.19,Wunderground v.1.15,2013-07-07 15:44:00,
2013-07-07 11:46:00,70.7,70.1,30.19,South,173,0.0,9.0,98,0.00,,,0.19,Wunderground v.1.15,2013-07-07 15:46:00,
2013-07-07 11:50:00,70.9,70.0,30.19,South,173,0.0,9.0,97,0.00,,,0.19,Wunderground v.1.15,2013-07-07 15:50:00,
2013-07-07 11:52:00,71.0,70.1,30.19,South,173,0.0,9.0,97,0.00,,,0.19,Wunderground v.1.15,2013-07-07 15:52:00,
2013-07-07 11:56:00,71.2,70.3,30.19,SSE,152,0.0,9.0,97,0.00,,,0.19,Wunderground v.1.15,2013-07-07 15:56:00,
2013-07-07 11:58:00,71.3,70.4,30.19,SSE,150,0.0,9.0,97,0.00,,,0.19,Wunderground v.1.15,2013-07-07 15:58:00,
2013-07-07 12:01:00,71.4,70.5,30.19,SW,232,0.0,9.0,97,0.00,,,0.19,Wunderground v.1.15,2013-07-07 16:01:00,
2013-07-07 12:04:00,71.5,70.3,30.19,West,274,0.0,9.0,96,0.00,,,0.19,Wunderground v.1.15,2013-07-07 16:04:00,
2013-07-07 12:06:00,71.5,70.3,30.19,West,275,0.0,9.0,96,0.00,,,0.19,Wunderground v.1.15,2013-07-07 16:06:00,
2013-07-07 12:10:00,71.6,70.4,30.19,WSW,251,0.0,9.0,96,0.00,,,0.19,Wunderground v.1.15,2013-07-07 16:10:00,
2013-07-07 12:12:00,71.7,70.2,30.19,WSW,251,0.0,9.0,95,0.00,,,0.19,Wunderground v.1.15,2013-07-07 16:12:00,
2013-07-07 12:18:00,72.0,70.2,30.19,SW,223,0.0,9.0,94,0.00,,,0.19,Wunderground v.1.15,2013-07-07 16:18:00,
2013-07-07 12:20:00,71.9,70.1,30.19,SW,232,0.0,9.0,94,0.00,,,0.19,Wunderground v.1.15,2013-07-07 16:20:00,
2013-07-07 12:22:00,71.8,69.7,30.19,West,270,0.0,9.0,93,0.00,,,0.19,Wunderground v.1.15,2013-07-07 16:22:00,
2013-07-07 12:28:00,72.0,70.2,30.19,SW,226,0.0,9.0,94,0.00,,,0.19,Wunderground v.1.15,2013-07-07 16:28:00,
2013-07-07 12:30:00,72.0,69.9,30.19,SW,225,0.0,9.0,93,0.00,,,0.19,Wunderground v.1.15,2013-07-07 16:30:00,
2013-07-07 12:34:00,72.4,70.6,30.18,SW,226,0.0,9.0,94,0.00,,,0.19,Wunderground v.1.15,2013-07-07 16:34:00,
2013-07-07 12:40:00,73.5,71.0,30.18,WNW,284,0.0,9.0,92,0.00,,,0.19,Wunderground v.1.15,2013-07-07 16:40:00,
2013-07-07 12:42:00,73.8,71.0,30.18,SSW,207,0.0,9.0,91,0.00,,,0.19,Wunderground v.1.15,2013-07-07 16:42:00,
2013-07-07 12:46:00,74.0,70.9,30.18,SW,232,0.0,9.0,90,0.00,,,0.19,Wunderground v.1.15,2013-07-07 16:46:00,
2013-07-07 12:48:00,73.9,70.5,30.18,WNW,286,0.0,9.0,89,0.00,,,0.19,Wunderground v.1.15,2013-07-07 16:48:00,
2013-07-07 12:52:00,73.6,70.8,30.18,SW,227,0.0,9.0,91,0.00,,,0.19,Wunderground v.1.15,2013-07-07 16:52:00,
2013-07-07 12:54:00,73.8,71.3,30.18,WNW,298,0.0,9.0,92,0.00,,,0.19,Wunderground v.1.15,2013-07-07 16:54:00,
2013-07-07 12:56:00,74.1,71.0,30.18,West,271,0.0,9.0,90,0.00,,,0.19,Wunderground v.1.15,2013-07-07 16:56:00,
2013-07-07 13:00:00,74.3,70.2,30.17,West,278,0.0,9.0,87,0.00,,,0.19,Wunderground v.1.15,2013-07-07 17:00:00,
2013-07-07 13:02:00,74.4,70.6,30.17,SW,221,0.0,9.0,88,0.00,,,0.19,Wunderground v.1.15,2013-07-07 17:02:00,
2013-07-07 13:04:00,74.3,69.8,30.17,SW,215,0.0,9.0,86,0.00,,,0.19,Wunderground v.1.15,2013-07-07 17:04:00,
2013-07-07 13:08:00,74.4,69.9,30.17,NW,325,1.0,9.0,86,0.00,,,0.19,Wunderground v.1.15,2013-07-07 17:08:00,
2013-07-07 13:10:00,74.6,71.1,30.17,NW,316,0.0,9.0,89,0.00,,,0.19,Wunderground v.1.15,2013-07-07 17:10:00,
2013-07-07 13:14:00,74.8,70.7,30.17,West,264,0.0,9.0,87,0.00,,,0.19,Wunderground v.1.15,2013-07-07 17:14:00,
2013-07-07 13:16:00,75.0,71.2,30.17,WNW,284,0.0,9.0,88,0.00,,,0.19,Wunderground v.1.15,2013-07-07 17:16:00,
2013-07-07 13:20:00,75.2,70.4,30.17,WNW,301,0.0,9.0,85,0.00,,,0.19,Wunderground v.1.15,2013-07-07 17:20:00,
2013-07-07 13:22:00,75.4,71.3,30.17,SSW,207,0.0,9.0,87,0.00,,,0.19,Wunderground v.1.15,2013-07-07 17:22:00,
2013-07-07 13:26:00,75.7,70.5,30.17,NW,323,1.0,9.0,84,0.00,,,0.19,Wunderground v.1.15,2013-07-07 17:26:00,
2013-07-07 13:28:00,75.7,70.9,30.17,SSW,211,2.0,9.0,85,0.00,,,0.19,Wunderground v.1.15,2013-07-07 17:28:00,
2013-07-07 13:30:00,75.7,70.5,30.17,SSW,211,2.0,2.0,84,0.00,,,0.19,Wunderground v.1.15,2013-07-07 17:30:00,
2013-07-07 13:32:00,75.7,70.2,30.17,SSW,198,1.0,9.0,83,0.00,,,0.19,Wunderground v.1.15,2013-07-07 17:32:00,
2013-07-07 13:34:00,75.7,70.5,30.17,SW,227,1.0,9.0,84,0.00,,,0.19,Wunderground v.1.15,2013-07-07 17:34:00,
2013-07-07 13:38:00,76.0,70.1,30.16,West,267,0.0,9.0,82,0.00,,,0.19,Wunderground v.1.15,2013-07-07 17:38:00,
2013-07-07 13:40:00,76.1,70.2,30.17,NE,51,0.0,9.0,82,0.00,,,0.19,Wunderground v.1.15,2013-07-07 17:40:00,
2013-07-07 13:42:00,76.3,70.4,30.17,SSW,207,1.0,9.0,82,0.00,,,0.19,Wunderground v.1.15,2013-07-07 17:42:00,
2013-07-07 13:46:00,76.6,69.6,30.16,WNW,292,1.0,9.0,79,0.00,,,0.19,Wunderground v.1.15,2013-07-07 17:46:00,
2013-07-07 13:48:00,76.7,70.1,30.16,West,267,1.0,9.0,80,0.00,,,0.19,Wunderground v.1.15,2013-07-07 17:48:00,
2013-07-07 13:50:00,76.8,70.2,30.16,West,267,1.0,1.0,80,0.00,,,0.19,Wunderground v.1.15,2013-07-07 17:50:00,
2013-07-07 13:54:00,77.2,70.2,30.16,WNW,291,0.0,9.0,79,0.00,,,0.19,Wunderground v.1.15,2013-07-07 17:54:00,
2013-07-07 13:56:00,77.5,72.3,30.17,WSW,242,0.0,9.0,84,0.00,,,0.19,Wunderground v.1.15,2013-07-07 17:56:00,
2013-07-07 14:00:00,77.5,69.3,30.16,SSW,192,1.0,1.0,76,0.00,,,0.19,Wunderground v.1.15,2013-07-07 18:00:00,
2013-07-07 14:02:00,77.5,70.1,30.16,WNW,303,1.0,4.0,78,0.00,,,0.19,Wunderground v.1.15,2013-07-07 18:02:00,
2013-07-07 14:06:00,77.5,70.5,30.17,SW,225,1.0,9.0,79,0.00,,,0.19,Wunderground v.1.15,2013-07-07 18:06:00,
2013-07-07 14:08:00,77.6,70.2,30.16,SW,227,1.0,9.0,78,0.00,,,0.19,Wunderground v.1.15,2013-07-07 18:08:00,
2013-07-07 14:10:00,77.7,69.9,30.17,West,263,1.0,9.0,77,0.00,,,0.19,Wunderground v.1.15,2013-07-07 18:10:00,
2013-07-07 14:14:00,77.7,69.5,30.16,WSW,245,2.0,9.0,76,0.00,,,0.19,Wunderground v.1.15,2013-07-07 18:14:00,
2013-07-07 14:16:00,77.8,70.0,30.16,WSW,240,1.0,9.0,77,0.00,,,0.19,Wunderground v.1.15,2013-07-07 18:16:00,
2013-07-07 14:20:00,78.5,72.2,30.16,WSW,254,1.0,9.0,81,0.00,,,0.19,Wunderground v.1.15,2013-07-07 18:20:00,
2013-07-07 14:22:00,78.7,71.6,30.16,WNW,297,0.0,9.0,79,0.00,,,0.19,Wunderground v.1.15,2013-07-07 18:22:00,
2013-07-07 14:28:00,78.9,70.3,30.16,West,269,1.0,9.0,75,0.00,,,0.19,Wunderground v.1.15,2013-07-07 18:28:00,
2013-07-07 14:30:00,78.7,70.9,30.16,West,259,1.0,9.0,77,0.00,,,0.19,Wunderground v.1.15,2013-07-07 18:30:00,
2013-07-07 14:32:00,78.6,70.8,30.16,WSW,256,1.0,9.0,77,0.00,,,0.19,Wunderground v.1.15,2013-07-07 18:32:00,
2013-07-07 14:34:00,78.7,71.3,30.16,SW,234,1.0,9.0,78,0.00,,,0.19,Wunderground v.1.15,2013-07-07 18:34:00,
2013-07-07 14:38:00,78.5,71.1,30.16,South,186,1.0,9.0,78,0.00,,,0.19,Wunderground v.1.15,2013-07-07 18:38:00,
2013-07-07 14:40:00,78.6,70.8,30.16,NE,44,1.0,1.0,77,0.00,,,0.19,Wunderground v.1.15,2013-07-07 18:40:00,
2013-07-07 14:42:00,78.8,72.1,30.16,East,82,1.0,9.0,80,0.00,,,0.19,Wunderground v.1.15,2013-07-07 18:42:00,
2013-07-07 14:46:00,79.1,70.9,30.16,NW,315,1.0,9.0,76,0.00,,,0.19,Wunderground v.1.15,2013-07-07 18:46:00,
2013-07-07 14:48:00,79.0,69.2,30.16,West,266,1.0,9.0,72,0.00,,,0.19,Wunderground v.1.15,2013-07-07 18:48:00,
2013-07-07 14:52:00,78.7,68.5,30.16,SSW,211,1.0,9.0,71,0.00,,,0.19,Wunderground v.1.15,2013-07-07 18:52:00,
2013-07-07 14:54:00,78.7,69.3,30.15,SW,214,1.0,9.0,73,0.00,,,0.19,Wunderground v.1.15,2013-07-07 18:54:00,
2013-07-07 14:56:00,78.6,68.8,30.15,NW,318,1.0,9.0,72,0.00,,,0.19,Wunderground v.1.15,2013-07-07 18:56:00,
2013-07-07 14:58:00,78.6,69.6,30.15,NW,318,1.0,9.0,74,0.00,,,0.19,Wunderground v.1.15,2013-07-07 18:58:00,
2013-07-07 15:00:00,78.5,70.3,30.15,NW,318,0.0,9.0,76,0.00,,,0.19,Wunderground v.1.15,2013-07-07 19:00:00,
2013-07-07 15:02:00,78.5,70.3,30.15,NW,318,0.0,9.0,76,0.00,,,0.19,Wunderground v.1.15,2013-07-07 19:02:00,
2013-07-07 15:04:00,78.7,70.1,30.15,NW,318,0.0,9.0,75,0.00,,,0.19,Wunderground v.1.15,2013-07-07 19:04:00,
2013-07-07 15:08:00,79.2,71.4,30.15,WNW,298,0.0,9.0,77,0.00,,,0.19,Wunderground v.1.15,2013-07-07 19:08:00,
2013-07-07 15:10:00,79.4,71.2,30.15,WSW,244,0.0,9.0,76,0.00,,,0.19,Wunderground v.1.15,2013-07-07 19:10:00,
2013-07-07 15:12:00,79.6,70.6,30.15,WNW,302,0.0,9.0,74,0.00,,,0.19,Wunderground v.1.15,2013-07-07 19:12:00,
2013-07-07 15:14:00,79.4,68.3,30.15,West,269,1.0,9.0,69,0.00,,,0.19,Wunderground v.1.15,2013-07-07 19:14:00,
2013-07-07 15:18:00,79.2,69.8,30.15,SW,233,1.0,9.0,73,0.00,,,0.19,Wunderground v.1.15,2013-07-07 19:18:00,
2013-07-07 15:20:00,79.2,68.6,30.15,WSW,240,1.0,9.0,70,0.00,,,0.19,Wunderground v.1.15,2013-07-07 19:20:00,
2013-07-07 15:22:00,79.1,69.7,30.15,West,269,1.0,9.0,73,0.00,,,0.19,Wunderground v.1.15,2013-07-07 19:22:00,
2013-07-07 15:26:00,78.8,68.6,30.15,WSW,250,1.0,9.0,71,0.00,,,0.19,Wunderground v.1.15,2013-07-07 19:26:00,
2013-07-07 15:28:00,79.0,69.2,30.15,NW,320,1.0,9.0,72,0.00,,,0.19,Wunderground v.1.15,2013-07-07 19:28:00,
2013-07-07 15:30:00,79.4,70.8,30.15,NW,319,1.0,1.0,75,0.00,,,0.19,Wunderground v.1.15,2013-07-07 19:30:00,
2013-07-07 15:32:00,79.9,69.2,30.15,North,360,0.0,9.0,70,0.00,,,0.19,Wunderground v.1.15,2013-07-07 19:32:00,
2013-07-07 15:34:00,80.4,70.1,30.15,WNW,303,0.0,9.0,71,0.00,,,0.19,Wunderground v.1.15,2013-07-07 19:34:00,
2013-07-07 15:36:00,80.9,71.0,30.15,West,279,0.0,9.0,72,0.00,,,0.19,Wunderground v.1.15,2013-07-07 19:36:00,
2013-07-07 15:38:00,81.0,68.6,30.15,West,275,0.0,9.0,66,0.00,,,0.19,Wunderground v.1.15,2013-07-07 19:38:00,
2013-07-07 15:40:00,81.0,69.0,30.15,WNW,298,1.0,9.0,67,0.00,,,0.19,Wunderground v.1.15,2013-07-07 19:40:00,
2013-07-07 15:42:00,80.9,69.3,30.15,WNW,301,1.0,9.0,68,0.00,,,0.19,Wunderground v.1.15,2013-07-07 19:42:00,
2013-07-07 15:44:00,80.9,68.5,30.15,SSW,213,1.0,9.0,66,0.00,,,0.19,Wunderground v.1.15,2013-07-07 19:44:00,
2013-07-07 15:48:00,80.6,68.6,30.15,West,275,1.0,9.0,67,0.00,,,0.19,Wunderground v.1.15,2013-07-07 19:48:00,
2013-07-07 15:50:00,80.6,69.1,30.15,West,280,1.0,1.0,68,0.00,,,0.19,Wunderground v.1.15,2013-07-07 19:50:00,
2013-07-07 15:52:00,80.7,68.7,30.15,NW,309,1.0,9.0,67,0.00,,,0.19,Wunderground v.1.15,2013-07-07 19:52:00,
2013-07-07 15:56:00,81.3,71.0,30.14,West,270,0.0,9.0,71,0.00,,,0.19,Wunderground v.1.15,2013-07-07 19:56:00,
2013-07-07 15:58:00,81.6,70.0,30.14,SW,230,0.0,9.0,68,0.00,,,0.19,Wunderground v.1.15,2013-07-07 19:58:00,
2013-07-07 16:00:00,81.3,68.9,30.14,SW,217,1.0,1.0,66,0.00,,,0.19,Wunderground v.1.15,2013-07-07 20:00:00,
2013-07-07 16:02:00,81.2,70.5,30.14,South,188,1.0,2.0,70,0.00,,,0.19,Wunderground v.1.15,2013-07-07 20:02:00,
2013-07-07 16:06:00,80.8,67.5,30.14,WSW,255,2.0,9.0,64,0.00,,,0.19,Wunderground v.1.15,2013-07-07 20:06:00,
2013-07-07 16:08:00,80.5,69.0,30.14,WNW,286,2.0,9.0,68,0.00,,,0.19,Wunderground v.1.15,2013-07-07 20:08:00,
2013-07-07 16:10:00,80.5,69.0,30.14,WNW,292,2.0,2.0,68,0.00,,,0.19,Wunderground v.1.15,2013-07-07 20:10:00,
2013-07-07 16:14:00,80.2,67.4,30.14,WNW,284,2.0,9.0,65,0.00,,,0.19,Wunderground v.1.15,2013-07-07 20:14:00,
2013-07-07 16:18:00,79.6,68.1,30.14,SW,221,1.0,9.0,68,0.00,,,0.19,Wunderground v.1.15,2013-07-07 20:18:00,
2013-07-07 16:20:00,79.5,68.0,30.14,SW,223,1.0,1.0,68,0.00,,,0.19,Wunderground v.1.15,2013-07-07 20:20:00,
2013-07-07 16:24:00,79.8,69.1,30.13,WSW,250,1.0,9.0,70,0.00,,,0.19,Wunderground v.1.15,2013-07-07 20:24:00,
2013-07-07 16:26:00,80.0,70.6,30.13,NNW,340,1.0,9.0,73,0.00,,,0.19,Wunderground v.1.15,2013-07-07 20:26:00,
2013-07-07 16:28:00,80.4,69.3,30.13,North,360,1.0,9.0,69,0.00,,,0.19,Wunderground v.1.15,2013-07-07 20:28:00,
2013-07-07 16:30:00,80.7,69.2,30.13,NNW,336,0.0,9.0,68,0.00,,,0.19,Wunderground v.1.15,2013-07-07 20:30:00,
2013-07-07 16:32:00,81.1,70.0,30.13,NNW,327,0.0,9.0,69,0.00,,,0.19,Wunderground v.1.15,2013-07-07 20:32:00,
2013-07-07 16:36:00,81.1,70.4,30.13,NNW,327,0.0,9.0,70,0.00,,,0.19,Wunderground v.1.15,2013-07-07 20:36:00,
2013-07-07 16:38:00,81.1,69.5,30.13,NW,319,0.0,9.0,68,0.00,,,0.19,Wunderground v.1.15,2013-07-07 20:38:00,
2013-07-07 16:40:00,81.1,70.0,30.13,NW,319,0.0,9.0,69,0.00,,,0.19,Wunderground v.1.15,2013-07-07 20:40:00,
2013-07-07 16:46:00,81.7,68.8,30.13,WSW,253,0.0,9.0,65,0.00,,,0.19,Wunderground v.1.15,2013-07-07 20:46:00,
2013-07-07 16:48:00,81.7,68.8,30.13,WSW,242,1.0,9.0,65,0.00,,,0.19,Wunderground v.1.15,2013-07-07 20:48:00,
2013-07-07 16:50:00,81.4,68.9,30.13,WSW,238,1.0,9.0,66,0.00,,,0.19,Wunderground v.1.15,2013-07-07 20:50:00,
2013-07-07 16:52:00,81.4,69.4,30.13,South,188,1.0,9.0,67,0.00,,,0.19,Wunderground v.1.15,2013-07-07 20:52:00,
2013-07-07 16:54:00,81.4,68.9,30.13,NW,308,1.0,9.0,66,0.00,,,0.19,Wunderground v.1.15,2013-07-07 20:54:00,
2013-07-07 16:56:00,81.3,68.9,30.12,WSW,257,1.0,9.0,66,0.00,,,0.19,Wunderground v.1.15,2013-07-07 20:56:00,
2013-07-07 16:58:00,81.3,71.0,30.12,WSW,252,1.0,9.0,71,0.00,,,0.19,Wunderground v.1.15,2013-07-07 20:58:00,
2013-07-07 17:02:00,81.5,71.6,30.12,WNW,301,0.0,9.0,72,0.00,,,0.19,Wunderground v.1.15,2013-07-07 21:02:00,
2013-07-07 17:06:00,81.9,69.9,30.12,NW,309,0.0,9.0,67,0.00,,,0.19,Wunderground v.1.15,2013-07-07 21:06:00,
2013-07-07 17:08:00,81.9,69.4,30.12,WNW,292,0.0,9.0,66,0.00,,,0.19,Wunderground v.1.15,2013-07-07 21:08:00,
2013-07-07 17:10:00,81.8,69.8,30.12,NNW,340,0.0,9.0,67,0.00,,,0.19,Wunderground v.1.15,2013-07-07 21:10:00,
2013-07-07 17:12:00,81.6,69.6,30.12,WSW,257,0.0,9.0,67,0.00,,,0.19,Wunderground v.1.15,2013-07-07 21:12:00,
2013-07-07 17:14:00,81.4,69.4,30.12,WSW,240,0.0,9.0,67,0.00,,,0.19,Wunderground v.1.15,2013-07-07 21:14:00,
2013-07-07 17:18:00,80.8,70.1,30.12,SSW,213,0.0,9.0,70,0.00,,,0.19,Wunderground v.1.15,2013-07-07 21:18:00,
2013-07-07 17:22:00,81.2,70.5,30.12,West,267,0.0,9.0,70,0.00,,,0.19,Wunderground v.1.15,2013-07-07 21:22:00,
2013-07-07 17:24:00,81.6,70.9,30.12,SW,235,0.0,9.0,70,0.00,,,0.19,Wunderground v.1.15,2013-07-07 21:24:00,
2013-07-07 17:26:00,81.6,70.4,30.12,West,268,0.0,9.0,69,0.00,,,0.19,Wunderground v.1.15,2013-07-07 21:26:00,
2013-07-07 17:32:00,81.9,71.2,30.12,North,355,0.0,9.0,70,0.00,,,0.19,Wunderground v.1.15,2013-07-07 21:32:00,
2013-07-07 17:34:00,82.0,70.8,30.12,West,281,0.0,9.0,69,0.00,,,0.19,Wunderground v.1.15,2013-07-07 21:34:00,
2013-07-07 17:36:00,82.2,71.0,30.12,South,186,0.0,9.0,69,0.00,,,0.19,Wunderground v.1.15,2013-07-07 21:36:00,
2013-07-07 17:38:00,82.2,71.0,30.12,West,280,0.0,9.0,69,0.00,,,0.19,Wunderground v.1.15,2013-07-07 21:38:00,
2013-07-07 17:40:00,82.2,69.3,30.12,West,281,0.0,9.0,65,0.00,,,0.19,Wunderground v.1.15,2013-07-07 21:40:00,
2013-07-07 17:42:00,82.1,70.1,30.12,West,273,0.0,9.0,67,0.00,,,0.19,Wunderground v.1.15,2013-07-07 21:42:00,
2013-07-07 17:44:00,82.0,69.5,30.12,SW,227,0.0,9.0,66,0.00,,,0.19,Wunderground v.1.15,2013-07-07 21:44:00,
2013-07-07 17:46:00,81.9,70.7,30.11,WSW,237,0.0,9.0,69,0.00,,,0.19,Wunderground v.1.15,2013-07-07 21:46:00,
2013-07-07 17:50:00,81.6,69.1,30.11,WNW,299,0.0,9.0,66,0.00,,,0.19,Wunderground v.1.15,2013-07-07 21:50:00,
2013-07-07 17:52:00,81.4,70.7,30.11,SSW,207,0.0,9.0,70,0.00,,,0.19,Wunderground v.1.15,2013-07-07 21:52:00,
2013-07-07 17:54:00,81.3,69.7,30.11,WSW,246,0.0,9.0,68,0.00,,,0.19,Wunderground v.1.15,2013-07-07 21:54:00,
2013-07-07 18:01:00,81.6,70.0,30.11,SSW,194,0.0,9.0,68,0.00,,,0.19,Wunderground v.1.15,2013-07-07 22:01:00,
2013-07-07 18:02:00,81.5,70.3,30.11,WSW,252,0.0,9.0,69,0.00,,,0.19,Wunderground v.1.15,2013-07-07 22:02:00,
2013-07-07 18:04:00,81.5,71.6,30.11,WNW,290,0.0,9.0,72,0.00,,,0.19,Wunderground v.1.15,2013-07-07 22:04:00,
2013-07-07 18:06:00,81.4,68.9,30.11,WSW,250,0.0,9.0,66,0.00,,,0.19,Wunderground v.1.15,2013-07-07 22:06:00,
2013-07-07 18:08:00,81.2,69.6,30.11,SSW,213,1.0,9.0,68,0.00,,,0.19,Wunderground v.1.15,2013-07-07 22:08:00,
2013-07-07 18:12:00,81.1,70.0,30.11,NNW,338,1.0,9.0,69,0.00,,,0.19,Wunderground v.1.15,2013-07-07 22:12:00,
2013-07-07 18:14:00,81.2,70.9,30.11,NNW,345,1.0,9.0,71,0.00,,,0.19,Wunderground v.1.15,2013-07-07 22:14:00,
2013-07-07 18:16:00,81.4,68.9,30.11,North,355,0.0,9.0,66,0.00,,,0.19,Wunderground v.1.15,2013-07-07 22:16:00,
2013-07-07 18:18:00,81.6,70.9,30.11,North,355,0.0,9.0,70,0.00,,,0.19,Wunderground v.1.15,2013-07-07 22:18:00,
2013-07-07 18:20:00,82.0,71.2,30.11,North,11,0.0,9.0,70,0.00,,,0.19,Wunderground v.1.15,2013-07-07 22:20:00,
2013-07-07 18:22:00,82.2,70.6,30.11,NW,326,0.0,9.0,68,0.00,,,0.19,Wunderground v.1.15,2013-07-07 22:22:00,
2013-07-07 18:26:00,82.4,70.3,30.11,NW,324,0.0,9.0,67,0.00,,,0.19,Wunderground v.1.15,2013-07-07 22:26:00,
2013-07-07 18:28:00,82.4,69.9,30.11,NNE,22,0.0,9.0,66,0.00,,,0.19,Wunderground v.1.15,2013-07-07 22:28:00,
2013-07-07 18:30:00,82.5,69.1,30.11,North,5,0.0,9.0,64,0.00,,,0.19,Wunderground v.1.15,2013-07-07 22:30:00,
2013-07-07 18:34:00,82.5,70.9,30.11,NW,316,0.0,9.0,68,0.00,,,0.19,Wunderground v.1.15,2013-07-07 22:34:00,
2013-07-07 18:38:00,82.2,69.7,30.11,NW,325,0.0,9.0,66,0.00,,,0.19,Wunderground v.1.15,2013-07-07 22:38:00,
2013-07-07 18:40:00,81.9,69.0,30.11,West,281,0.0,9.0,65,0.00,,,0.19,Wunderground v.1.15,2013-07-07 22:40:00,
2013-07-07 18:46:00,81.5,70.8,30.11,WNW,290,0.0,9.0,70,0.00,,,0.19,Wunderground v.1.15,2013-07-07 22:46:00,
2013-07-07 18:48:00,81.5,69.9,30.11,WNW,290,0.0,9.0,68,0.00,,,0.19,Wunderground v.1.15,2013-07-07 22:48:00,
2013-07-07 18:50:00,81.5,69.5,30.11,WSW,242,0.0,9.0,67,0.00,,,0.19,Wunderground v.1.15,2013-07-07 22:50:00,
2013-07-07 18:54:00,81.4,69.4,30.11,West,267,0.0,9.0,67,0.00,,,0.19,Wunderground v.1.15,2013-07-07 22:54:00,
2013-07-07 19:01:00,81.3,69.7,30.11,West,268,0.0,9.0,68,0.00,,,0.19,Wunderground v.1.15,2013-07-07 23:01:00,
2013-07-07 19:04:00,81.4,70.2,30.11,West,268,0.0,9.0,69,0.00,,,0.19,Wunderground v.1.15,2013-07-07 23:04:00,
2013-07-07 19:06:00,81.5,70.3,30.11,West,268,0.0,9.0,69,0.00,,,0.19,Wunderground v.1.15,2013-07-07 23:06:00,
2013-07-07 19:10:00,81.6,70.0,30.11,WSW,242,0.0,9.0,68,0.00,,,0.19,Wunderground v.1.15,2013-07-07 23:10:00,
2013-07-07 19:12:00,81.5,69.9,30.11,WSW,246,0.0,9.0,68,0.00,,,0.19,Wunderground v.1.15,2013-07-07 23:12:00,
2013-07-07 19:14:00,81.5,70.8,30.11,WNW,298,0.0,9.0,70,0.00,,,0.19,Wunderground v.1.15,2013-07-07 23:14:00,
2013-07-07 19:16:00,81.4,69.8,30.11,NW,315,0.0,9.0,68,0.00,,,0.19,Wunderground v.1.15,2013-07-07 23:16:00,
2013-07-07 19:18:00,81.4,69.4,30.11,NW,311,0.0,9.0,67,0.00,,,0.19,Wunderground v.1.15,2013-07-07 23:18:00,
2013-07-07 19:20:00,81.4,69.8,30.11,NW,309,0.0,9.0,68,0.00,,,0.19,Wunderground v.1.15,2013-07-07 23:20:00,
2013-07-07 19:24:00,81.3,69.3,30.11,WNW,288,0.0,9.0,67,0.00,,,0.19,Wunderground v.1.15,2013-07-07 23:24:00,
2013-07-07 19:28:00,81.4,69.4,30.11,WNW,289,0.0,9.0,67,0.00,,,0.19,Wunderground v.1.15,2013-07-07 23:28:00,
2013-07-07 19:32:00,81.4,69.4,30.11,WNW,288,0.0,9.0,67,0.00,,,0.19,Wunderground v.1.15,2013-07-07 23:32:00,
2013-07-07 19:34:00,81.6,69.6,30.11,WNW,288,0.0,9.0,67,0.00,,,0.19,Wunderground v.1.15,2013-07-07 23:34:00,
2013-07-07 19:36:00,81.7,69.7,30.11,WNW,288,0.0,9.0,67,0.00,,,0.19,Wunderground v.1.15,2013-07-07 23:36:00,
2013-07-07 19:38:00,81.7,69.7,30.11,WNW,288,0.0,9.0,67,0.00,,,0.19,Wunderground v.1.15,2013-07-07 23:38:00,
2013-07-07 19:42:00,81.7,69.7,30.11,WNW,288,0.0,9.0,67,0.00,,,0.19,Wunderground v.1.15,2013-07-07 23:42:00,
2013-07-07 19:44:00,81.4,69.4,30.11,WNW,288,0.0,9.0,67,0.00,,,0.19,Wunderground v.1.15,2013-07-07 23:44:00,
2013-07-07 19:48:00,81.0,69.4,30.11,WSW,240,0.0,9.0,68,0.00,,,0.19,Wunderground v.1.15,2013-07-07 23:48:00,
2013-07-07 19:50:00,80.9,69.8,30.11,WSW,240,0.0,9.0,69,0.00,,,0.19,Wunderground v.1.15,2013-07-07 23:50:00,
2013-07-07 19:54:00,81.1,70.0,30.11,WSW,240,0.0,9.0,69,0.00,,,0.19,Wunderground v.1.15,2013-07-07 23:54:00,
2013-07-07 19:56:00,81.2,69.6,30.11,WSW,240,0.0,9.0,68,0.00,,,0.19,Wunderground v.1.15,2013-07-07 23:56:00,
2013-07-07 20:00:00,81.1,70.0,30.12,WSW,240,0.0,9.0,69,0.00,,,0.19,Wunderground v.1.15,2013-07-08 00:00:00,
2013-07-07 20:02:00,81.0,69.9,30.12,WSW,240,0.0,9.0,69,0.00,,,0.19,Wunderground v.1.15,2013-07-08 00:02:00,
2013-07-07 20:06:00,81.1,70.0,30.12,WSW,240,0.0,9.0,69,0.00,,,0.19,Wunderground v.1.15,2013-07-08 00:06:00,
2013-07-07 20:08:00,81.1,69.5,30.12,WSW,240,0.0,9.0,68,0.00,,,0.19,Wunderground v.1.15,2013-07-08 00:08:00,
2013-07-07 20:14:00,81.2,69.6,30.13,WSW,240,0.0,9.0,68,0.00,,,0.19,Wunderground v.1.15,2013-07-08 00:14:00,
2013-07-07 20:16:00,81.1,69.5,30.13,WSW,240,0.0,9.0,68,0.00,,,0.19,Wunderground v.1.15,2013-07-08 00:16:00,
2013-07-07 20:18:00,81.0,69.9,30.13,WSW,240,0.0,9.0,69,0.00,,,0.19,Wunderground v.1.15,2013-07-08 00:18:00,
2013-07-07 20:24:00,80.3,69.6,30.13,WSW,240,0.0,9.0,70,0.00,,,0.19,Wunderground v.1.15,2013-07-08 00:24:00,
2013-07-07 20:26:00,80.0,69.3,30.13,WSW,240,0.0,9.0,70,0.00,,,0.19,Wunderground v.1.15,2013-07-08 00:26:00,
2013-07-07 20:30:00,79.6,69.4,30.13,WSW,240,0.0,9.0,71,0.00,,,0.19,Wunderground v.1.15,2013-07-08 00:30:00,
2013-07-07 20:32:00,79.4,69.6,30.13,WSW,240,0.0,9.0,72,0.00,,,0.19,Wunderground v.1.15,2013-07-08 00:32:00,
2013-07-07 20:36:00,79.1,69.7,30.13,WSW,240,0.0,9.0,73,0.00,,,0.19,Wunderground v.1.15,2013-07-08 00:36:00,
2013-07-07 20:38:00,79.0,70.0,30.13,WSW,240,0.0,9.0,74,0.00,,,0.19,Wunderground v.1.15,2013-07-08 00:38:00,
2013-07-07 20:42:00,78.7,69.7,30.13,WSW,240,0.0,9.0,74,0.00,,,0.19,Wunderground v.1.15,2013-07-08 00:42:00,
2013-07-07 20:44:00,78.6,69.6,30.13,WSW,240,0.0,9.0,74,0.00,,,0.19,Wunderground v.1.15,2013-07-08 00:44:00,
2013-07-07 20:46:00,78.5,69.5,30.13,WSW,240,0.0,9.0,74,0.00,,,0.19,Wunderground v.1.15,2013-07-08 00:46:00,
2013-07-07 20:48:00,78.2,69.2,30.13,WSW,240,0.0,9.0,74,0.00,,,0.19,Wunderground v.1.15,2013-07-08 00:48:00,
2013-07-07 20:50:00,77.9,68.9,30.13,WSW,240,0.0,9.0,74,0.00,,,0.19,Wunderground v.1.15,2013-07-08 00:50:00,
2013-07-07 20:52:00,77.5,68.9,30.13,WSW,240,0.0,9.0,75,0.00,,,0.19,Wunderground v.1.15,2013-07-08 00:52:00,
2013-07-07 20:54:00,77.2,68.7,30.13,WSW,240,0.0,9.0,75,0.00,,,0.19,Wunderground v.1.15,2013-07-08 00:54:00,
2013-07-07 20:58:00,76.7,68.6,30.13,WSW,240,0.0,9.0,76,0.00,,,0.19,Wunderground v.1.15,2013-07-08 00:58:00,
2013-07-07 21:00:00,76.5,68.7,30.13,WSW,240,0.0,9.0,77,0.00,,,0.19,Wunderground v.1.15,2013-07-08 01:00:00,
2013-07-07 21:04:00,76.2,68.8,30.13,WSW,240,0.0,9.0,78,0.00,,,0.19,Wunderground v.1.15,2013-07-08 01:04:00,
2013-07-07 21:06:00,76.0,68.6,30.13,WSW,240,0.0,9.0,78,0.00,,,0.19,Wunderground v.1.15,2013-07-08 01:06:00,
2013-07-07 21:10:00,75.7,68.7,30.14,WSW,240,0.0,9.0,79,0.00,,,0.19,Wunderground v.1.15,2013-07-08 01:10:00,
2013-07-07 21:12:00,75.5,68.5,30.14,WSW,240,0.0,9.0,79,0.00,,,0.19,Wunderground v.1.15,2013-07-08 01:12:00,
2013-07-07 21:14:00,75.4,68.4,30.14,WSW,240,0.0,9.0,79,0.00,,,0.19,Wunderground v.1.15,2013-07-08 01:14:00,
2013-07-07 21:18:00,75.2,68.2,30.14,WSW,240,0.0,9.0,79,0.00,,,0.19,Wunderground v.1.15,2013-07-08 01:18:00,
2013-07-07 21:22:00,75.0,68.4,30.14,WSW,240,0.0,9.0,80,0.00,,,0.19,Wunderground v.1.15,2013-07-08 01:22:00,
2013-07-07 21:24:00,74.9,68.3,30.14,West,260,0.0,9.0,80,0.00,,,0.19,Wunderground v.1.15,2013-07-08 01:24:00,
2013-07-07 21:26:00,74.8,68.2,30.14,West,260,0.0,9.0,80,0.00,,,0.19,Wunderground v.1.15,2013-07-08 01:26:00,
2013-07-07 21:28:00,74.7,68.1,30.14,West,260,0.0,9.0,80,0.00,,,0.19,Wunderground v.1.15,2013-07-08 01:28:00,
2013-07-07 21:30:00,74.6,68.0,30.14,West,260,0.0,9.0,80,0.00,,,0.19,Wunderground v.1.15,2013-07-08 01:30:00,
2013-07-07 21:32:00,74.5,67.9,30.14,West,260,0.0,9.0,80,0.00,,,0.19,Wunderground v.1.15,2013-07-08 01:32:00,
2013-07-07 21:36:00,74.4,67.8,30.15,West,260,0.0,9.0,80,0.00,,,0.19,Wunderground v.1.15,2013-07-08 01:36:00,
2013-07-07 21:38:00,74.3,68.1,30.15,West,260,0.0,9.0,81,0.00,,,0.19,Wunderground v.1.15,2013-07-08 01:38:00,
2013-07-07 21:44:00,74.1,67.9,30.15,West,260,0.0,9.0,81,0.00,,,0.19,Wunderground v.1.15,2013-07-08 01:44:00,
2013-07-07 21:46:00,74.0,67.8,30.15,West,260,0.0,9.0,81,0.00,,,0.19,Wunderground v.1.15,2013-07-08 01:46:00,
2013-07-07 21:50:00,73.9,68.1,30.15,West,260,0.0,9.0,82,0.00,,,0.19,Wunderground v.1.15,2013-07-08 01:50:00,
2013-07-07 21:52:00,73.8,68.0,30.15,West,260,0.0,9.0,82,0.00,,,0.19,Wunderground v.1.15,2013-07-08 01:52:00,
2013-07-07 21:56:00,73.7,67.9,30.15,West,260,0.0,9.0,82,0.00,,,0.19,Wunderground v.1.15,2013-07-08 01:56:00,
2013-07-07 22:00:00,73.5,67.7,30.16,West,260,0.0,9.0,82,0.00,,,0.19,Wunderground v.1.15,2013-07-08 02:00:00,
2013-07-07 22:02:00,73.5,67.7,30.16,West,260,0.0,9.0,82,0.00,,,0.19,Wunderground v.1.15,2013-07-08 02:02:00,
2013-07-07 22:08:00,73.4,67.9,30.16,West,260,0.0,9.0,83,0.00,,,0.19,Wunderground v.1.15,2013-07-08 02:08:00,
2013-07-07 22:10:00,73.3,67.8,30.16,West,260,0.0,9.0,83,0.00,,,0.19,Wunderground v.1.15,2013-07-08 02:10:00,
2013-07-07 22:12:00,73.3,67.5,30.16,West,260,0.0,9.0,82,0.00,,,0.19,Wunderground v.1.15,2013-07-08 02:12:00,
2013-07-07 22:18:00,73.2,67.4,30.16,West,260,0.0,9.0,82,0.00,,,0.19,Wunderground v.1.15,2013-07-08 02:18:00,
2013-07-07 22:20:00,73.2,68.1,30.16,West,260,0.0,9.0,84,0.00,,,0.19,Wunderground v.1.15,2013-07-08 02:20:00,
2013-07-07 22:26:00,73.3,67.8,30.16,West,260,0.0,9.0,83,0.00,,,0.19,Wunderground v.1.15,2013-07-08 02:26:00,
2013-07-07 22:32:00,73.5,68.0,30.16,West,260,0.0,9.0,83,0.00,,,0.19,Wunderground v.1.15,2013-07-08 02:32:00,
2013-07-07 22:34:00,73.4,67.9,30.16,West,260,0.0,9.0,83,0.00,,,0.19,Wunderground v.1.15,2013-07-08 02:34:00,
2013-07-07 22:38:00,73.3,67.8,30.16,West,260,0.0,9.0,83,0.00,,,0.19,Wunderground v.1.15,2013-07-08 02:38:00,
2013-07-07 22:40:00,73.3,67.8,30.16,West,260,0.0,9.0,83,0.00,,,0.19,Wunderground v.1.15,2013-07-08 02:40:00,
2013-07-07 22:42:00,73.4,67.9,30.16,West,260,0.0,9.0,83,0.00,,,0.19,Wunderground v.1.15,2013-07-08 02:42:00,
2013-07-07 22:44:00,73.4,67.9,30.16,West,260,0.0,9.0,83,0.00,,,0.19,Wunderground v.1.15,2013-07-08 02:44:00,
2013-07-07 22:48:00,73.4,67.9,30.16,West,260,0.0,9.0,83,0.00,,,0.19,Wunderground v.1.15,2013-07-08 02:48:00,
2013-07-07 22:52:00,73.2,68.1,30.17,West,260,0.0,9.0,84,0.00,,,0.19,Wunderground v.1.15,2013-07-08 02:52:00,
2013-07-07 22:54:00,73.1,68.0,30.17,West,260,0.0,9.0,84,0.00,,,0.19,Wunderground v.1.15,2013-07-08 02:54:00,
2013-07-07 22:56:00,72.8,67.7,30.17,West,260,0.0,9.0,84,0.00,,,0.19,Wunderground v.1.15,2013-07-08 02:56:00,
2013-07-07 23:02:00,72.5,67.7,30.17,West,260,0.0,9.0,85,0.00,,,0.19,Wunderground v.1.15,2013-07-08 03:02:00,
2013-07-07 23:06:00,72.5,67.7,30.17,West,260,0.0,9.0,85,0.00,,,0.19,Wunderground v.1.15,2013-07-08 03:06:00,
2013-07-07 23:08:00,72.5,67.7,30.17,West,260,0.0,9.0,85,0.00,,,0.19,Wunderground v.1.15,2013-07-08 03:08:00,
2013-07-07 23:10:00,72.6,67.8,30.17,West,260,0.0,9.0,85,0.00,,,0.19,Wunderground v.1.15,2013-07-08 03:10:00,
2013-07-07 23:12:00,72.5,67.7,30.17,West,260,0.0,9.0,85,0.00,,,0.19,Wunderground v.1.15,2013-07-08 03:12:00,
2013-07-07 23:14:00,72.6,67.8,30.17,West,260,0.0,9.0,85,0.00,,,0.19,Wunderground v.1.15,2013-07-08 03:14:00,
2013-07-07 23:18:00,72.6,67.5,30.16,West,260,0.0,9.0,84,0.00,,,0.19,Wunderground v.1.15,2013-07-08 03:18:00,
2013-07-07 23:20:00,72.6,67.8,30.16,West,260,0.0,9.0,85,0.00,,,0.19,Wunderground v.1.15,2013-07-08 03:20:00,
2013-07-07 23:22:00,72.6,68.2,30.16,West,260,0.0,9.0,86,0.00,,,0.19,Wunderground v.1.15,2013-07-08 03:22:00,
2013-07-07 23:24:00,72.5,67.7,30.16,West,260,0.0,9.0,85,0.00,,,0.19,Wunderground v.1.15,2013-07-08 03:24:00,
2013-07-07 23:28:00,72.2,68.1,30.17,West,260,0.0,9.0,87,0.00,,,0.19,Wunderground v.1.15,2013-07-08 03:28:00,
2013-07-07 23:30:00,72.0,67.6,30.17,West,260,0.0,9.0,86,0.00,,,0.19,Wunderground v.1.15,2013-07-08 03:30:00,
2013-07-07 23:34:00,72.0,67.6,30.16,West,260,0.0,9.0,86,0.00,,,0.19,Wunderground v.1.15,2013-07-08 03:34:00,
2013-07-07 23:36:00,72.1,67.7,30.16,West,260,0.0,9.0,86,0.00,,,0.19,Wunderground v.1.15,2013-07-08 03:36:00,
2013-07-07 23:38:00,72.1,67.7,30.17,West,260,0.0,9.0,86,0.00,,,0.19,Wunderground v.1.15,2013-07-08 03:38:00,
2013-07-07 23:40:00,72.1,68.0,30.17,West,260,0.0,9.0,87,0.00,,,0.19,Wunderground v.1.15,2013-07-08 03:40:00,
2013-07-07 23:44:00,71.9,68.2,30.17,West,260,0.0,9.0,88,0.00,,,0.19,Wunderground v.1.15,2013-07-08 03:44:00,
2013-07-07 23:50:00,71.6,68.2,30.17,West,260,0.0,9.0,89,0.00,,,0.19,Wunderground v.1.15,2013-07-08 03:50:00,
2013-07-07 23:54:00,71.5,68.4,30.17,West,260,0.0,9.0,90,0.00,,,0.19,Wunderground v.1.15,2013-07-08 03:54:00,
2013-07-07 23:56:00,71.5,68.7,30.17,West,260,0.0,9.0,91,0.00,,,0.19,Wunderground v.1.15,2013-07-08 03:56:00,